Weather History for Ohio State University, OH

Change the Weather History Date:

Thursday, April 17, 2014

  Actual Average Record
Temperature  
Mean Temperature 50 °F -  
Max Temperature 66 °F 61 °F 82 °F (2002)
Min Temperature 35 °F 41 °F 30 °F (2001)
Degree Days  
Heating Degree Days 14    
Moisture  
Dew Point 26 °F    
Average Humidity 40    
Maximum Humidity 55    
Minimum Humidity 25    
Precipitation  
Precipitation 0.00 in - - ()
Sea Level Pressure  
Sea Level Pressure 30.32 in    
Wind  
Wind Speed 9 mph (SSE)    
Max Wind Speed 15 mph    
Max Gust Speed 23 mph    
Visibility 10 miles    
Events      
Averages and records for this station are not official NWS values.
T = Trace of Precipitation, MM = Missing Value Source: NWS Daily Summary

Daily Weather History Graph

Daily Weather History Graph

Search for Another Location

Airport:

Trip Planner

Search our weather history database for the weather conditions in past years. The results will help you decide how hot, cold, wet, or windy it might be!

Date:

Astronomy

Apr. 17, 2014 Rise Set
Actual Time 6:51 AM EDT 8:12 PM EDT
Civil Twilight 6:23 AM EDT 8:41 PM EDT
Nautical Twilight 5:49 AM EDT 9:15 PM EDT
Astronomical Twilight 5:13 AM EDT 9:50 PM EDT
Moon 10:57 PM EDT 8:22 AM EDT
Length of Visible Light 14h 18m
Length of Day
13h 21m
Waning Gibbous, 94% of the Moon is Illuminated
Apr 17
Waning Gibbous
Apr 22
Last Quarter
Apr 29
New
May 6
First Quarter
May 14
Full

Hourly Weather History & Observations

Time (EDT) Temp. Windchill Dew Point Humidity Pressure Visibility Wind Dir Wind Speed Gust Speed Precip Events Conditions
12:53 AM 37.0 °F 31.0 °F 21.0 °F 52% 30.34 in 10.0 mi East 8.1 mph - N/A   Clear
1:53 AM 37.9 °F 32.1 °F 19.0 °F 47% 30.33 in 10.0 mi ESE 8.1 mph - N/A   Clear
2:53 AM 35.1 °F 29.3 °F 19.9 °F 54% 30.32 in 10.0 mi ESE 6.9 mph - N/A   Clear
3:53 AM 37.9 °F 32.1 °F 19.0 °F 47% 30.32 in 10.0 mi ESE 8.1 mph - N/A   Clear
4:53 AM 37.9 °F 31.5 °F 19.0 °F 47% 30.32 in 10.0 mi SE 9.2 mph - N/A   Clear
5:53 AM 37.0 °F 31.0 °F 19.9 °F 50% 30.33 in 10.0 mi ESE 8.1 mph - N/A   Clear
6:53 AM 36.0 °F 30.3 °F 21.0 °F 55% 30.35 in 10.0 mi ESE 6.9 mph - N/A   Clear
7:53 AM 39.0 °F 32.8 °F 21.9 °F 50% 30.36 in 10.0 mi SE 9.2 mph - N/A   Clear
8:53 AM 45.0 °F 38.5 °F 23.0 °F 42% 30.38 in 10.0 mi SSE 13.8 mph 21.9 mph N/A   Clear
9:53 AM 50.0 °F - 27.0 °F 41% 30.38 in 10.0 mi South 10.4 mph - N/A   Clear
10:53 AM 55.0 °F - 28.9 °F 37% 30.38 in 10.0 mi SSW 11.5 mph - N/A   Clear
1:53 PM 64.0 °F - 33.1 °F 31% 30.34 in 10.0 mi SSW 15.0 mph 23.0 mph N/A   Clear
2:53 PM 64.9 °F - 32.0 °F 29% 30.33 in 10.0 mi South 10.4 mph - N/A   Clear
3:53 PM 66.0 °F - 28.9 °F 25% 30.30 in 10.0 mi SW 11.5 mph - N/A   Clear
4:53 PM 66.9 °F - 30.9 °F 26% 30.29 in 10.0 mi SW 12.7 mph - N/A   Clear
5:53 PM 66.0 °F - 28.9 °F 25% 30.29 in 10.0 mi SSE 15.0 mph 23.0 mph N/A   Clear
6:53 PM 64.9 °F - 30.0 °F 27% 30.27 in 10.0 mi SSW 11.5 mph - N/A   Clear
7:53 PM 62.1 °F - 30.9 °F 31% 30.27 in 10.0 mi SSW 6.9 mph - N/A   Clear
8:53 PM 61.0 °F - 30.0 °F 31% 30.29 in 10.0 mi SSW 3.5 mph - N/A   Clear
9:53 PM 57.9 °F - 30.9 °F 36% 30.32 in 10.0 mi SSW 3.5 mph - N/A   Clear
10:53 PM 53.1 °F - 32.0 °F 45% 30.30 in 10.0 mi East 3.5 mph - N/A   Clear
11:53 PM 51.1 °F - 32.0 °F 48% 30.28 in 10.0 mi Calm Calm - N/A   Clear